W2JGA Weather Reports


time (UTC)temp
C
wind
direction
speed
KPH
gust
KPH
rain 1hr
cm
rain 24hr
cm
rain mn
cm
humidity
%
barometer
mb
20260510224725 37 23 4.8 4.8 0.00 0.00 0.00 13 1014.3
20260510224222 37 307 6.4 8.0 0.00 0.00 0.00 13 1014.7
20260510223720 37 293 9.7 12.9 0.00 0.00 0.00 13 1014.3
20260510223217 37 72 6.4 8.0 0.00 0.00 0.00 13 1014.3
20260510222714 37 105 1.6 3.2 0.00 0.00 0.00 13 1014.3
20260510222211 38 357 0.0 0.0 0.00 0.00 0.00 13 1014.3
20260510221706 38 40 1.6 1.6 0.00 0.00 0.00 13 1014.3
20260510221203 37 49 4.8 4.8 0.00 0.00 0.00 13 1014.7
20260510220659 37 10 6.4 11.3 0.00 0.00 0.00 14 1014.7
20260510220154 37 72 4.8 4.8 0.00 0.00 0.00 13 1014.3
20260510215652 37 67 8.0 11.3 0.00 0.00 0.00 13 1014.7
20260510215150 37 75 1.6 3.2 0.00 0.00 0.00 13 1014.7
20260510214646 37 136 9.7 11.3 0.00 0.00 0.00 14 1014.7
20260510214143 37 88 1.6 1.6 0.00 0.00 0.00 13 1015.0
20260510213640 37 352 4.8 9.7 0.00 0.00 0.00 13 1014.7
20260510213137 37 300 8.0 12.9 0.00 0.00 0.00 13 1014.7
20260510212633 37 282 6.4 9.7 0.00 0.00 0.00 13 1014.7
20260510212130 37 45 6.4 9.7 0.00 0.00 0.00 13 1014.7
20260510211627 37 309 8.0 9.7 0.00 0.00 0.00 13 1015.0
20260510211121 37 19 1.6 1.6 0.00 0.00 0.00 13 1014.7
20260510210618 37 322 8.0 12.9 0.00 0.00 0.00 13 1015.0
20260510210114 37 64 3.2 4.8 0.00 0.00 0.00 13 1015.4
20260510205612 37 78 3.2 4.8 0.00 0.00 0.00 13 1015.0
20260510205108 37 79 4.8 4.8 0.00 0.00 0.00 13 1015.0
20260510204605 37 79 1.6 3.2 0.00 0.00 0.00 14 1015.4
20260510204102 37 352 4.8 8.0 0.00 0.00 0.00 14 1015.4
20260510203559 37 75 4.8 4.8 0.00 0.00 0.00 13 1015.0
20260510203056 37 57 4.8 4.8 0.00 0.00 0.00 13 1015.4
20260510202555 36 286 4.8 4.8 0.00 0.00 0.00 13 1015.8
20260510202051 36 20 11.3 14.5 0.00 0.00 0.00 13 1015.4
20260510201548 37 284 9.7 12.9 0.00 0.00 0.00 13 1015.8
20260510201045 37 60 4.8 9.7 0.00 0.00 0.00 13 1015.8
20260510200541 36 355 4.8 4.8 0.00 0.00 0.00 13 1015.8
20260510200039 36 21 4.8 8.0 0.00 0.00 0.00 14 1015.8
20260510195536 37 3 6.4 9.7 0.00 0.00 0.00 14 1016.1
20260510195032 37 48 4.8 4.8 0.00 0.00 0.00 13 1015.8
20260510194527 36 48 1.6 3.2 0.00 0.00 0.00 14 1015.8
20260510194024 36 285 9.7 12.9 0.00 0.00 0.00 14 1015.8
20260510193518 36 344 1.6 1.6 0.00 0.00 0.00 14 1016.1
20260510193014 36 352 4.8 8.0 0.00 0.00 0.00 14 1015.8
20260510192504 36 312 3.2 3.2 0.00 0.00 0.00 14 1015.8
20260510192000 36 274 6.4 8.0 0.00 0.00 0.00 14 1016.1
20260510191456 36 29 1.6 3.2 0.00 0.00 0.00 14 1016.1
20260510190954 36 62 3.2 3.2 0.00 0.00 0.00 15 1016.1
20260510190451 36 52 6.4 8.0 0.00 0.00 0.00 14 1016.1
20260510185947 36 242 4.8 8.0 0.00 0.00 0.00 15 1016.1
20260510185445 36 302 8.0 11.3 0.00 0.00 0.00 14 1016.1
20260510184942 36 5 6.4 8.0 0.00 0.00 0.00 15 1016.5
20260510184439 35 69 3.2 3.2 0.00 0.00 0.00 15 1016.5
20260510183939 35 69 3.2 4.8 0.00 0.00 0.00 15 1016.5
20260510183435 35 4 0.0 0.0 0.00 0.00 0.00 15 1016.5
20260510182930 35 22 6.4 12.9 0.00 0.00 0.00 15 1016.5
20260510182427 35 178 3.2 3.2 0.00 0.00 0.00 16 1016.5
20260510181922 35 163 1.6 3.2 0.00 0.00 0.00 16 1016.5
20260510181421 35 144 3.2 3.2 0.00 0.00 0.00 15 1016.5
20260510180916 34 120 0.0 1.6 0.00 0.00 0.00 16 1016.5
20260510180414 34 199 6.4 8.0 0.00 0.00 0.00 16 1016.8
20260510175910 34 158 4.8 8.0 0.00 0.00 0.00 16 1016.5
20260510175406 34 129 3.2 3.2 0.00 0.00 0.00 16 1016.5
20260510174902 33 285 1.6 3.2 0.00 0.00 0.00 17 1016.8
20260510174401 34 208 4.8 8.0 0.00 0.00 0.00 17 1016.8
20260510173856 33 193 1.6 1.6 0.00 0.00 0.00 17 1016.8
20260510173352 33 195 3.2 3.2 0.00 0.00 0.00 17 1016.8
20260510172849 34 167 3.2 3.2 0.00 0.00 0.00 18 1016.8
20260510172345 33 164 1.6 3.2 0.00 0.00 0.00 17 1016.5
20260510171841 32 190 1.6 3.2 0.00 0.00 0.00 18 1016.5
20260510171339 33 167 3.2 3.2 0.00 0.00 0.00 18 1016.8
20260510170836 32 155 3.2 3.2 0.00 0.00 0.00 18 1016.8
20260510170332 32 185 1.6 3.2 0.00 0.00 0.00 19 1017.2
20260510165827 32 158 3.2 3.2 0.00 0.00 0.00 19 1016.8
20260510165324 32 158 3.2 3.2 0.00 0.00 0.00 19 1016.8
20260510164821 32 129 1.6 1.6 0.00 0.00 0.00 19 1016.8
20260510164319 31 129 1.6 1.6 0.00 0.00 0.00 19 1016.5
20260510163818 31 130 4.8 4.8 0.00 0.00 0.00 19 1016.5
20260510163315 31 132 1.6 1.6 0.00 0.00 0.00 19 1016.8
20260510162814 32 132 3.2 4.8 0.00 0.00 0.00 19 1016.8
20260510162312 32 131 1.6 1.6 0.00 0.00 0.00 19 1016.5
20260510161807 31 130 3.2 3.2 0.00 0.00 0.00 19 1016.8
20260510161303 31 146 0.0 1.6 0.00 0.00 0.00 20 1016.5
20260510160800 30 148 3.2 4.8 0.00 0.00 0.00 20 1016.8
20260510160256 30 145 1.6 1.6 0.00 0.00 0.00 20 1016.8
20260510155752 30 137 3.2 3.2 0.00 0.00 0.00 20 1016.5
20260510155248 30 169 4.8 8.0 0.00 0.00 0.00 21 1016.5
20260510154744 30 141 1.6 1.6 0.00 0.00 0.00 21 1016.5
20260510154240 30 141 1.6 1.6 0.00 0.00 0.00 22 1016.5
20260510153735 30 153 0.0 0.0 0.00 0.00 0.00 22 1016.5
20260510153231 29 123 1.6 3.2 0.00 0.00 0.00 23 1016.8
20260510152728 28 131 0.0 1.6 0.00 0.00 0.00 24 1016.8
20260510152224 28 132 1.6 3.2 0.00 0.00 0.00 24 1016.8
20260510151721 28 137 1.6 3.2 0.00 0.00 0.00 24 1016.8
20260510151220 27 145 1.6 1.6 0.00 0.00 0.00 24 1016.8
20260510150715 27 134 1.6 1.6 0.00 0.00 0.00 24 1016.8
20260510150210 27 135 1.6 1.6 0.00 0.00 0.00 25 1016.8
20260510145707 26 140 0.0 1.6 0.00 0.00 0.00 25 1016.5
20260510145203 26 140 4.8 4.8 0.00 0.00 0.00 26 1016.5
20260510144700 26 137 1.6 1.6 0.00 0.00 0.00 27 1016.8
20260510144156 25 149 3.2 3.2 0.00 0.00 0.00 27 1016.5
20260510143651 25 139 0.0 0.0 0.00 0.00 0.00 28 1016.5
20260510143148 25 144 0.0 0.0 0.00 0.00 0.00 28 1016.8
20260510142644 25 144 0.0 0.0 0.00 0.00 0.00 31 1016.5
20260510142141 23 136 0.0 0.0 0.00 0.00 0.00 31 1016.5
20260510141638 23 120 1.6 1.6 0.00 0.00 0.00 33 1016.5
20260510141137 23 126 1.6 3.2 0.00 0.00 0.00 32 1016.8
20260510140632 23 130 1.6 1.6 0.00 0.00 0.00 30 1016.5
20260510140132 23 132 1.6 1.6 0.00 0.00 0.00 32 1016.5
20260510135627 23 135 0.0 0.0 0.00 0.00 0.00 30 1016.5
20260510135124 23 133 0.0 0.0 0.00 0.00 0.00 30 1016.5
20260510134621 23 131 0.0 0.0 0.00 0.00 0.00 31 1016.5
20260510134118 22 131 0.0 0.0 0.00 0.00 0.00 32 1016.5
20260510133614 21 131 0.0 0.0 0.00 0.00 0.00 34 1016.1
20260510133109 21 130 0.0 0.0 0.00 0.00 0.00 34 1016.1
20260510132606 21 138 0.0 0.0 0.00 0.00 0.00 35 1016.1
20260510132103 21 143 0.0 1.6 0.00 0.00 0.00 31 1016.1
20260510131601 21 143 0.0 1.6 0.00 0.00 0.00 31 1015.8
20260510131058 21 142 0.0 1.6 0.00 0.00 0.00 31 1016.1
20260510130554 20 144 1.6 1.6 0.00 0.00 0.00 31 1015.8
20260510130052 20 140 3.2 3.2 0.00 0.00 0.00 31 1016.1
20260510125548 20 149 3.2 3.2 0.00 0.00 0.00 32 1015.8
20260510125044 20 143 1.6 3.2 0.00 0.00 0.00 33 1015.8
20260510124541 20 133 0.0 0.0 0.00 0.00 0.00 33 1015.8
20260510124038 19 134 1.6 1.6 0.00 0.00 0.00 32 1015.8
20260510123533 19 135 0.0 0.0 0.00 0.00 0.00 33 1015.8
20260510123030 20 131 1.6 3.2 0.00 0.00 0.00 33 1015.8
20260510122525 20 132 1.6 1.6 0.00 0.00 0.00 32 1015.8
20260510122022 20 133 3.2 3.2 0.00 0.00 0.00 32 1015.4
20260510121519 20 135 0.0 0.0 0.00 0.00 0.00 32 1015.4
20260510121016 20 138 0.0 0.0 0.00 0.00 0.00 32 1015.4
20260510120514 19 135 1.6 3.2 0.00 0.00 0.00 33 1015.0
20260510120010 20 141 0.0 0.0 0.00 0.00 0.00 34 1015.4
20260510115506 20 142 0.0 0.0 0.00 0.00 0.00 33 1015.4
20260510115003 20 142 1.6 1.6 0.00 0.00 0.00 33 1015.4
20260510114459 20 141 0.0 0.0 0.00 0.00 0.00 33 1015.0
20260510113955 20 141 0.0 0.0 0.00 0.00 0.00 34 1015.4
20260510113450 20 145 0.0 0.0 0.00 0.00 0.00 34 1015.4
20260510112948 20 145 0.0 0.0 0.00 0.00 0.00 34 1015.0
20260510112445 20 145 0.0 0.0 0.00 0.00 0.00 34 1015.0
20260510111941 20 148 0.0 0.0 0.00 0.00 0.00 34 1015.0
20260510111437 20 148 1.6 1.6 0.00 0.00 0.00 35 1015.0
20260510110933 19 137 0.0 0.0 0.00 0.00 0.00 37 1015.0
20260510110430 19 142 0.0 0.0 0.00 0.00 0.00 37 1015.0
20260510105926 19 143 0.0 0.0 0.00 0.00 0.00 37 1015.0
20260510105421 19 131 0.0 0.0 0.00 0.00 0.00 36 1015.0
20260510104916 19 129 0.0 0.0 0.00 0.00 0.00 37 1015.0
20260510104413 19 129 0.0 0.0 0.00 0.00 0.00 37 1014.7
20260510103909 19 129 0.0 0.0 0.00 0.00 0.00 37 1014.7
20260510103402 20 133 0.0 0.0 0.00 0.00 0.00 36 1015.0
20260510102857 20 133 0.0 0.0 0.00 0.00 0.00 35 1015.0
20260510102353 20 133 0.0 0.0 0.00 0.00 0.00 34 1014.7
20260510101850 20 141 0.0 0.0 0.00 0.00 0.00 32 1014.7
20260510101348 21 144 0.0 0.0 0.00 0.00 0.00 31 1014.7
20260510100845 21 144 0.0 0.0 0.00 0.00 0.00 31 1014.7
20260510100342 21 144 0.0 0.0 0.00 0.00 0.00 31 1014.7
20260510095838 21 132 0.0 0.0 0.00 0.00 0.00 32 1015.0
20260510095333 21 155 1.6 3.2 0.00 0.00 0.00 30 1015.0
20260510094833 20 139 0.0 0.0 0.00 0.00 0.00 33 1014.7
20260510094328 20 139 0.0 0.0 0.00 0.00 0.00 33 1014.7
20260510093825 20 139 0.0 0.0 0.00 0.00 0.00 31 1014.7
20260510093321 21 140 0.0 0.0 0.00 0.00 0.00 30 1015.0
20260510092817 21 139 0.0 0.0 0.00 0.00 0.00 30 1014.7
20260510092313 21 139 0.0 0.0 0.00 0.00 0.00 29 1014.7
20260510091809 22 139 0.0 0.0 0.00 0.00 0.00 29 1014.7
20260510091306 22 139 0.0 0.0 0.00 0.00 0.00 28 1014.7
20260510090803 22 139 0.0 0.0 0.00 0.00 0.00 28 1015.0
20260510090300 22 137 0.0 0.0 0.00 0.00 0.00 27 1014.7
20260510085756 23 137 0.0 0.0 0.00 0.00 0.00 27 1014.7
20260510085254 23 132 0.0 0.0 0.00 0.00 0.00 27 1014.7
20260510084751 23 137 1.6 1.6 0.00 0.00 0.00 27 1014.7
20260510084248 23 139 1.6 1.6 0.00 0.00 0.00 26 1014.7
20260510083745 23 139 1.6 1.6 0.00 0.00 0.00 26 1014.7
20260510083242 23 153 4.8 4.8 0.00 0.00 0.00 26 1014.7
20260510082738 23 136 4.8 4.8 0.00 0.00 0.00 27 1014.7
20260510082235 23 143 0.0 0.0 0.00 0.00 0.00 27 1014.7
20260510081733 24 153 0.0 3.2 0.00 0.00 0.00 27 1014.7
20260510081230 24 141 0.0 0.0 0.00 0.00 0.00 26 1014.7
20260510080725 24 140 1.6 1.6 0.00 0.00 0.00 26 1014.7
20260510080221 25 137 0.0 0.0 0.00 0.00 0.00 27 1014.7
20260510075718 25 137 1.6 1.6 0.00 0.00 0.00 26 1014.7
20260510075216 25 137 0.0 0.0 0.00 0.00 0.00 25 1014.7
20260510074713 26 130 0.0 1.6 0.00 0.00 0.00 25 1014.7
20260510074209 26 125 1.6 3.2 0.00 0.00 0.00 24 1014.7
20260510073706 26 138 3.2 3.2 0.00 0.00 0.00 23 1015.0
20260510073201 26 139 1.6 1.6 0.00 0.00 0.00 24 1014.7
20260510072657 25 146 3.2 3.2 0.00 0.00 0.00 23 1014.7
20260510072154 25 139 0.0 0.0 0.00 0.00 0.00 26 1014.7
20260510071650 25 138 0.0 0.0 0.00 0.00 0.00 25 1014.7
20260510071147 26 138 0.0 0.0 0.00 0.00 0.00 24 1014.3
20260510070645 26 143 0.0 0.0 0.00 0.00 0.00 23 1014.7
20260510070143 27 146 0.0 1.6 0.00 0.00 0.00 22 1014.7
20260510065638 27 146 0.0 1.6 0.00 0.00 0.00 22 1014.7
20260510065134 28 147 0.0 0.0 0.00 0.00 0.00 21 1014.7
20260510064630 28 148 3.2 3.2 0.00 0.00 0.00 21 1014.7
20260510064127 28 165 3.2 3.2 0.00 0.00 0.00 20 1014.7
20260510063624 28 155 3.2 3.2 0.00 0.00 0.00 20 1014.7
20260510063121 28 200 4.8 4.8 0.00 0.00 0.00 20 1014.3
20260510062617 29 166 4.8 4.8 0.00 0.00 0.00 20 1014.3
20260510062113 29 217 4.8 8.0 0.00 0.00 0.00 20 1014.3
20260510061609 29 204 4.8 8.0 0.00 0.00 0.00 19 1014.7
20260510061107 27 293 11.3 14.5 0.00 0.00 0.00 21 1014.3
20260510060602 27 138 0.0 0.0 0.00 0.00 0.00 23 1014.3
20260510060058 27 142 1.6 1.6 0.00 0.00 0.00 22 1014.3
20260510055554 27 153 1.6 3.2 0.00 0.00 0.00 22 1014.3
20260510055053 27 151 1.6 3.2 0.00 0.00 0.00 22 1014.3
20260510054548 28 169 1.6 3.2 0.00 0.00 0.00 22 1013.9
20260510054044 28 157 3.2 3.2 0.00 0.00 0.00 21 1013.9
20260510053544 28 170 4.8 4.8 0.00 0.00 0.00 21 1013.9
20260510053041 28 183 4.8 4.8 0.00 0.00 0.00 20 1013.6
20260510052537 28 157 3.2 3.2 0.00 0.00 0.00 21 1013.6
20260510052033 28 165 4.8 4.8 0.00 0.00 0.00 21 1013.6
20260510051529 28 136 0.0 0.0 0.00 0.00 0.00 21 1013.6
20260510051026 28 128 0.0 0.0 0.00 0.00 0.00 21 1013.2
20260510050523 28 121 3.2 3.2 0.00 0.00 0.00 21 1013.2
20260510050020 28 129 1.6 3.2 0.00 0.00 0.00 21 1013.6
20260510045517 28 124 3.2 3.2 0.00 0.00 0.00 21 1013.2
20260510045013 28 125 1.6 3.2 0.00 0.00 0.00 21 1013.2
20260510044510 28 131 1.6 1.6 0.00 0.00 0.00 21 1013.2
20260510044008 29 148 1.6 3.2 0.00 0.00 0.00 20 1013.2
20260510043502 29 143 4.8 4.8 0.00 0.00 0.00 20 1013.2
20260510043002 29 135 4.8 4.8 0.00 0.00 0.00 20 1013.2
20260510042457 29 135 0.0 0.0 0.00 0.00 0.00 20 1012.9
20260510041952 29 144 3.2 3.2 0.00 0.00 0.00 20 1012.9
20260510041450 29 124 3.2 3.2 0.00 0.00 0.00 21 1012.9
20260510040948 29 132 0.0 0.0 0.00 0.00 0.00 20 1012.9
20260510040444 29 126 3.2 4.8 0.00 0.00 0.00 20 1012.9
20260510035940 29 131 1.6 1.6 0.00 0.00 0.00 21 1012.4
20260510035436 30 136 1.6 1.6 0.00 0.00 0.00 20 1012.4
20260510034936 30 112 3.2 3.2 0.00 0.00 0.00 20 1012.4
20260510034435 30 113 4.8 4.8 0.00 0.00 0.00 20 1012.4
20260510033931 30 161 3.2 3.2 0.00 0.00 0.00 20 1012.1
20260510033427 30 131 0.0 0.0 0.00 0.00 0.00 20 1012.4
20260510032924 30 128 0.0 0.0 0.00 0.00 0.00 19 1012.1
20260510032421 30 134 0.0 0.0 0.00 0.00 0.00 19 1012.1
20260510031916 30 135 0.0 0.0 0.00 0.00 0.00 21 1012.1
20260510031413 30 134 0.0 0.0 0.00 0.00 0.00 19 1012.1
20260510030913 30 133 0.0 0.0 0.00 0.00 0.00 19 1011.8
20260510030409 30 133 0.0 0.0 0.00 0.00 0.00 20 1012.1
20260510025907 30 131 0.0 0.0 0.00 0.00 0.00 22 1011.8
20260510025404 30 136 0.0 0.0 0.00 0.00 0.00 20 1011.8
20260510024901 31 133 0.0 0.0 0.00 0.00 0.00 20 1011.8
20260510024358 31 130 0.0 1.6 0.00 0.00 0.00 18 1011.3
20260510023853 31 131 0.0 0.0 0.00 0.00 0.00 19 1011.8
20260510023350 31 133 0.0 0.0 0.00 0.00 0.00 18 1011.8
20260510022848 31 131 0.0 1.6 0.00 0.00 0.00 17 1011.8
20260510022347 32 131 0.0 0.0 0.00 0.00 0.00 17 1011.8
20260510021846 32 131 0.0 0.0 0.00 0.00 0.00 17 1011.3
20260510021344 32 131 0.0 1.6 0.00 0.00 0.00 17 1011.3
20260510020840 33 127 1.6 1.6 0.00 0.00 0.00 17 1011.3
20260510020340 33 136 1.6 3.2 0.00 0.00 0.00 16 1011.3
20260510015836 33 129 1.6 3.2 0.00 0.00 0.00 16 1011.3
20260510015332 33 64 0.0 1.6 0.00 0.00 0.00 16 1011.3
20260510014827 34 51 4.8 8.0 0.00 0.00 0.00 16 1011.3
20260510014325 34 62 3.2 3.2 0.00 0.00 0.00 16 1011.3
20260510013821 35 355 3.2 3.2 0.00 0.00 0.00 16 1011.0
20260510013317 35 297 4.8 4.8 0.00 0.00 0.00 16 1011.0
20260510012812 35 41 3.2 8.0 0.00 0.00 0.00 15 1011.0
20260510012307 35 54 3.2 4.8 0.00 0.00 0.00 15 1011.0
20260510011807 35 349 0.0 0.0 0.00 0.00 0.00 16 1011.0
20260510011302 35 310 1.6 3.2 0.00 0.00 0.00 15 1011.0
20260510010759 35 60 3.2 3.2 0.00 0.00 0.00 15 1011.3
20260510010256 35 23 6.4 11.3 0.00 0.00 0.00 15 1011.0
20260510005753 35 57 4.8 9.7 0.00 0.00 0.00 15 1011.0
20260510005249 35 347 6.4 9.7 0.00 0.00 0.00 15 1011.0
20260510004747 36 80 0.0 1.6 0.00 0.00 0.00 15 1011.0
20260510004244 35 60 0.0 0.0 0.00 0.00 0.00 15 1011.3
20260510003742 35 3 6.4 11.3 0.00 0.00 0.00 15 1011.0
20260510003238 36 349 19.3 25.7 0.00 0.00 0.00 15 1011.0
20260510002736 36 316 6.4 9.7 0.00 0.00 0.00 15 1011.3
20260510002234 36 43 4.8 4.8 0.00 0.00 0.00 15 1011.0
20260510001731 36 73 4.8 4.8 0.00 0.00 0.00 15 1011.3
20260510001230 36 77 0.0 1.6 0.00 0.00 0.00 15 1011.3
20260510000725 36 92 1.6 3.2 0.00 0.00 0.00 15 1011.3
20260510000223 36 49 4.8 8.0 0.00 0.00 0.00 15 1011.3
20260509235719 36 332 4.8 4.8 0.00 0.00 0.00 15 1011.3
20260509235216 36 293 11.3 14.5 0.00 0.00 0.00 15 1011.3
20260509234707 36 47 6.4 9.7 0.00 0.00 0.00 15 1011.3
20260509234203 36 110 4.8 4.8 0.00 0.00 0.00 15 1011.3
20260509233702 36 201 0.0 0.0 0.00 0.00 0.00 15 1011.3
20260509233159 36 315 11.3 14.5 0.00 0.00 0.00 15 1011.3
20260509232655 36 325 3.2 4.8 0.00 0.00 0.00 15 1011.8
20260509232152 36 321 6.4 9.7 0.00 0.00 0.00 15 1011.8
20260509231649 36 67 3.2 4.8 0.00 0.00 0.00 15 1011.3
20260509231146 36 291 12.9 16.1 0.00 0.00 0.00 15 1011.8
20260509230643 36 22 4.8 11.3 0.00 0.00 0.00 16 1011.8
20260509230140 36 51 6.4 11.3 0.00 0.00 0.00 15 1011.8
20260509225636 36 331 16.1 25.7 0.00 0.00 0.00 15 1011.8
20260509225132 36 54 6.4 9.7 0.00 0.00 0.00 15 1011.8